Cody, WY

4:15 AM MDT on August 26, 2016 (GMT -0600)
Yellowstone Regional

Weather History for KCOD - May, 2013

Change the Weather History Date:

Thursday, May 16, 2013

  Actual Average Record
Temperature  
Mean Temperature 56 °F -  
Max Temperature 64 °F 67 °F 92 °F (1934)
Min Temperature 48 °F 41 °F 22 °F (1983)
Degree Days  
Heating Degree Days 9    
Growing Degree Days 6 (Base 50)    
Moisture  
Dew Point 44 °F    
Average Humidity 66    
Maximum Humidity 87    
Minimum Humidity 42    
Precipitation  
Precipitation 0.02 in - - ()
Sea Level Pressure  
Sea Level Pressure 29.87 in    
Wind  
Wind Speed 5 mph (NNE)    
Max Wind Speed 20 mph    
Max Gust Speed 23 mph    
Visibility 10 miles    
Events Thunderstorm    
Averages and records for this station are not official NWS values.
T = Trace of Precipitation, MM = Missing Value Source: NWS Daily Summary

Daily Weather History Graph

Daily Weather History Graph

Search for Another Location

Airport or City:

Trip Planner

Search our weather history database for the weather conditions in past years. The results will help you decide how hot, cold, wet, or windy it might be!

Date:

Astronomy

May. 16, 2013 Rise Set
Actual Time 5:47 AM MDT 8:38 PM MDT
Civil Twilight 5:13 AM MDT 9:12 PM MDT
Nautical Twilight 4:30 AM MDT 9:55 PM MDT
Astronomical Twilight 3:39 AM MDT 10:46 PM MDT
Moon 11:28 AM MDT (5/16) 12:57 AM MDT (5/16)
Length of Visible Light 15h 59m
Length of Day
14h 51m
Waxing Crescent, 36% of the Moon is Illuminated
May 16
Waxing Crescent
May 17
First Quarter
May 24
Full
May 31
Last Quarter
Jun 8
New

Hourly Weather History & Observations

Time (MDT) Temp. Dew Point Humidity Pressure Visibility Wind Dir Wind Speed Gust Speed Precip Events Conditions
12:15 AM 57.2 °F 42.8 °F 59% 29.90 in 10.0 mi Calm Calm - N/A   Overcast
12:35 AM 57.2 °F 44.6 °F 63% 29.90 in 10.0 mi WSW 5.8 mph - N/A   Overcast
12:55 AM 55.4 °F 46.4 °F 72% 29.90 in 10.0 mi NNE 6.9 mph - N/A   Scattered Clouds
1:15 AM 55.4 °F 46.4 °F 72% 29.90 in 10.0 mi Calm Calm - N/A   Clear
1:35 AM 55.4 °F 44.6 °F 67% 29.90 in 10.0 mi NNE 5.8 mph - N/A   Partly Cloudy
1:55 AM 55.4 °F 41.0 °F 58% 29.89 in 10.0 mi NE 8.1 mph - N/A   Clear
2:15 AM 55.4 °F 39.2 °F 54% 29.89 in 10.0 mi NW 3.5 mph - N/A   Clear
2:35 AM 55.4 °F 39.2 °F 54% 29.88 in 10.0 mi South 3.5 mph - N/A   Scattered Clouds
2:55 AM 53.6 °F 44.6 °F 72% 29.88 in 10.0 mi South 3.5 mph - N/A   Partly Cloudy
3:15 AM 53.6 °F 42.8 °F 67% 29.87 in 10.0 mi Calm Calm - N/A   Clear
3:35 AM 51.8 °F 42.8 °F 71% 29.87 in 10.0 mi NE 3.5 mph - N/A   Clear
3:55 AM 51.8 °F 42.8 °F 71% 29.87 in 10.0 mi Calm Calm - N/A   Clear
4:15 AM 51.8 °F 42.8 °F 71% 29.87 in 10.0 mi Calm Calm - N/A   Clear
4:35 AM 51.8 °F 42.8 °F 71% 29.86 in 10.0 mi Calm Calm - N/A   Clear
4:55 AM 50.0 °F 42.8 °F 76% 29.86 in 10.0 mi South 5.8 mph - N/A   Partly Cloudy
5:15 AM 50.0 °F 42.8 °F 76% 29.85 in 10.0 mi SSE 6.9 mph - N/A   Mostly Cloudy
5:35 AM 51.8 °F 42.8 °F 71% 29.86 in 10.0 mi Calm Calm - N/A   Mostly Cloudy
5:55 AM 50.0 °F 42.8 °F 76% 29.86 in 10.0 mi SSE 3.5 mph - N/A   Mostly Cloudy
6:15 AM 48.2 °F 42.8 °F 82% 29.86 in 10.0 mi North 4.6 mph - N/A   Clear
6:35 AM 48.2 °F 42.8 °F 82% 29.87 in 10.0 mi Calm Calm - N/A   Clear
6:55 AM 48.2 °F 42.8 °F 82% 29.88 in 10.0 mi Calm Calm - N/A   Clear
7:15 AM 48.2 °F 42.8 °F 82% 29.88 in 10.0 mi NNW 3.5 mph - N/A   Clear
7:35 AM 50.0 °F 42.8 °F 76% 29.89 in 10.0 mi Calm Calm - N/A   Clear
8:15 AM 51.8 °F 42.8 °F 71% 29.89 in 10.0 mi NE 4.6 mph - N/A   Clear
8:35 AM 53.6 °F 42.8 °F 67% 29.89 in 10.0 mi NNE 10.4 mph - N/A   Clear
9:15 AM 53.6 °F 42.8 °F 67% 29.89 in 10.0 mi NNE 8.1 mph - N/A   Partly Cloudy
9:55 AM 55.4 °F 42.8 °F 63% 29.90 in 10.0 mi NNW 5.8 mph - N/A   Mostly Cloudy
10:15 AM 55.4 °F 41.0 °F 58% 29.89 in 10.0 mi East 5.8 mph - N/A   Mostly Cloudy
10:35 AM 55.4 °F 42.8 °F 63% 29.90 in 10.0 mi East 5.8 mph - N/A   Overcast
11:15 AM 57.2 °F 42.8 °F 59% 29.88 in 10.0 mi Calm Calm - N/A   Partly Cloudy
11:35 AM 59.0 °F 44.6 °F 59% 29.88 in 10.0 mi West 3.5 mph - N/A   Clear
11:55 AM 59.0 °F 44.6 °F 59% 29.86 in 10.0 mi ENE 6.9 mph - N/A   Clear
1:35 PM 60.8 °F 44.6 °F 55% 29.85 in 10.0 mi North 6.9 mph - N/A   Overcast
1:55 PM 60.8 °F 46.4 °F 59% 29.87 in 10.0 mi WNW 10.4 mph - N/A Thunderstorm Overcast
2:15 PM 53.6 °F 46.4 °F 77% 29.88 in 7.0 mi SSW 13.8 mph - N/A   Overcast
2:55 PM 60.8 °F 46.4 °F 59% 29.84 in 10.0 mi SSE 11.5 mph - 0.01 in   Partly Cloudy
3:15 PM 60.8 °F 46.4 °F 59% 29.83 in 10.0 mi SSE 12.7 mph - N/A   Partly Cloudy
3:35 PM 62.6 °F 44.6 °F 52% 29.82 in 10.0 mi South 8.1 mph - 0.01 in   Clear
4:15 PM 64.4 °F 42.8 °F 45% 29.83 in 10.0 mi WSW 16.1 mph 23.0 mph N/A   Mostly Cloudy
4:35 PM 62.6 °F 39.2 °F 42% 29.82 in 10.0 mi West 5.8 mph 18.4 mph N/A   Overcast
4:55 PM 64.4 °F 42.8 °F 45% 29.82 in 10.0 mi NW 5.8 mph - N/A   Partly Cloudy
5:15 PM 64.4 °F 44.6 °F 49% 29.82 in 10.0 mi NNW 4.6 mph - N/A   Clear
5:35 PM 62.6 °F 44.6 °F 52% 29.81 in 10.0 mi NNE 8.1 mph - N/A   Clear
5:55 PM 64.4 °F 41.0 °F 42% 29.80 in 10.0 mi Calm Calm - N/A   Clear
6:15 PM 64.4 °F 42.8 °F 45% 29.81 in 10.0 mi NNE 3.5 mph - N/A   Partly Cloudy
6:35 PM 64.4 °F 41.0 °F 42% 29.81 in 10.0 mi ESE 6.9 mph - N/A   Mostly Cloudy
6:55 PM 57.2 °F 44.6 °F 63% 29.83 in 10.0 mi NNE 19.6 mph 23.0 mph N/A   Overcast
7:15 PM 55.4 °F 44.6 °F 67% 29.85 in 10.0 mi North 12.7 mph - N/A   Overcast
7:35 PM 55.4 °F 46.4 °F 72% 29.86 in 10.0 mi North 11.5 mph - N/A   Overcast
7:55 PM 53.6 °F 46.4 °F 77% 29.87 in 10.0 mi North 10.4 mph - N/A   Overcast
8:15 PM 53.6 °F 46.4 °F 77% 29.87 in 10.0 mi NNW 6.9 mph - N/A   Overcast
8:35 PM 53.6 °F 46.4 °F 77% 29.88 in 10.0 mi NW 4.6 mph - N/A   Overcast
9:35 PM 53.6 °F 46.4 °F 77% 29.90 in 10.0 mi East 6.9 mph - N/A   Mostly Cloudy
9:55 PM 51.8 °F 44.6 °F 76% 29.90 in 10.0 mi ENE 8.1 mph - N/A   Scattered Clouds
10:15 PM 50.0 °F 42.8 °F 76% 29.89 in 10.0 mi NE 8.1 mph - N/A   Mostly Cloudy
10:35 PM 50.0 °F 44.6 °F 82% 29.87 in 10.0 mi NE 8.1 mph - N/A   Overcast
10:55 PM 48.2 °F 44.6 °F 87% 29.89 in 10.0 mi NNW 5.8 mph - N/A   Scattered Clouds
11:35 PM 48.2 °F 44.6 °F 87% 29.90 in 10.0 mi NNE 6.9 mph - N/A   Clear